Погода в Кузьминке

Россия / Нижегородская область     55°25′21″N   45°36′46″E
темп.,
°C
ветер,
м/с
пор.,
м/с
влажн.,
%
обл.,
%
осадки,
мм/ч
давл.,
гПа
погр.,
м
23 апреля, пт
пт2300:00+6ююз22835 0.0 102222
03:00+5ю33835 0.0 102336
06:00+6ююв36836 0.0 1023127
09:00+12ю57575 0.0 1023575
12:00+15ю444722 0.0 10221663
15:00+14ююв3450100 0.0 1021252
18:00+12ююв115879 0.0 101914
21:00+11юв497198 0.0 1019237
24 апреля, сб
сб2400:00+9юв4979100 0.1 1017225
03:00+8юв3786100 0.1 1016145
06:00+8вюв3785100 0.0 1014199
09:00+11вюв5767100 0.0 1013656
12:00+13юв5658100 0.0 10101096
15:00+14юв564976 0.0 10081800
18:00+10вюв71174100 0.1 1006809
21:00+8вюв61290100 2.4 1004640
25 апреля, вс
вс2500:00+5юз6992100 3.4 1003710
03:00+4зюз71186100 3.7 10021250
06:00+4зюз81394100 0.3 1002946
09:00+5зюз101876100 0.5 10031740
12:00+8з111652100 0.3 10062007
15:00+8з10165273 0.4 10082485
18:00+7зюз915585 0.3 10091580
21:00+5зюз7146644 0.3 1011841
26 апреля, пн
пн2600:00+3зюз815695 0.0 1012750
03:00+2юз613795 0.0 1013491
06:00+3ююз5117836 0.0 1013479
09:00+5юз7117496 0.1 10131177
12:00+7зюз676193 0.2 10141446
15:00+8юз575196 0.3 10141846
18:00+8юз365129 0.0 1012261
21:00+6ю2362100 0.0 101251
27 апреля, вт
вт2700:00+4ссз3290100 0.9 1010249
03:00+3ссв3595100 2.4 1007248
06:00+1зсз51099100 2.0 1007312
09:00+3з689389 2.1 1008497
12:00+7з686895 0.9 10081040
15:00+8з4558100 1.6 10071267
18:00+6зюз467067 0.3 1007479
21:00+3зсз2586100 0.6 1009138